Regional Weather Roundup
Issued by NWS

Home | Current Version | Previous Version | Text Only | Print | Product List | Glossary Off
Versions: 1 2 3 4 5 6 7 8 9 10 11 12 13 14 15 16 17 18 19 20 21 22 23 24 25 26 27 28 29 30 31 32 33 34 35 36 37 38 39 40 41 42 43 44 45 46 47 48 49 50

000
ASUS44 KMEG 021000
RWRTN
TENNESSEE HOURLY STATE WEATHER ROUNDUP
NATIONAL WEATHER SERVICE MEMPHIS TN
400 AM CST MON MAR 02 2015

TNZ002-004-019-021-049-052-054-088>092-021100-
WEST TENNESSEE

CITY           SKY/WX    TMP DP  RH WIND       PRES   REMARKS
MEMPHIS INTL   CLOUDY    35  30  82 NE16      30.41F WCI  25
NWS MEMPHIS      N/A     34 N/A N/A MISG        N/A
JACKSON        CLOUDY    34  30  85 N15       30.43R WCI  24
DYERSBURG      CLOUDY    32  18  55 NE15      30.48R WCI  22
UNION CITY     CLOUDY    28  27  93 N16       30.47R WCI  17
PARIS          CLOUDY    28  25  86 N13       30.45R WCI  18
LEXINGTON      CLOUDY    34  32  93 N13       30.41R WCI  25
SAVANNAH       CLOUDY    37  37 100 N12       30.39R WCI  30
$$

TNZ008-025-027-028-033-062-065-066-021100-
NORTH MIDDLE TENNESSEE

CITY           SKY/WX    TMP DP  RH WIND       PRES   REMARKS
NASHVILLE      CLOUDY    33  32  96 N9        30.43R FOG     WCI  25
CLARKSVILLE    CLOUDY    31  27  85 N13       30.46R WCI  21
COOKEVILLE     CLOUDY    37  37 100 N5        30.35R WCI  34
CROSSVILLE     CLOUDY    39  37  92 N6        30.31R WCI  35
$$

TNZ061-075-076-078-094-096-097-021100-
SOUTH MIDDLE TENNESSEE

CITY           SKY/WX    TMP DP  RH WIND       PRES   REMARKS
FAYETTEVILLE   CLOUDY    39  39 100 N12         N/A  WCI  32
TULLAHOMA      CLOUDY    37  37 100 N8        30.35R WCI  31
WINCHESTER     CLOUDY    43  41  93 N13       30.34R
COLUMBIA       CLOUDY   N/A N/A N/A N7        30.38R
SHELBYVILLE    CLOUDY    37  37 100 N9        30.39R WCI  31
$$

TNZ017-018-042-046-047-021100-
NORTHEAST TENNESSEE

CITY           SKY/WX    TMP DP  RH WIND       PRES   REMARKS
TRI CITIES     LGT RAIN  41  41 100 CALM      30.27R VSB 3/4
ELIZABETHTON   LGT RAIN  43  43 100 CALM      30.27R FOG
$$

TNZ012-013-036-069-073-074-021100-
CENTRAL EAST TENNESSEE

CITY           SKY/WX    TMP DP  RH WIND       PRES   REMARKS
KNOXVILLE      LGT RAIN  46  45  96 W5        30.30R FOG
OAK RIDGE      LGT RAIN  46  44  93 VRB3      30.31R FOG
GATLINBURG     CLOUDY    45  43  93 CALM      30.29R
$$

TNZ083-085-099-021100-
SOUTHEAST TENNESSEE

CITY           SKY/WX    TMP DP  RH WIND       PRES   REMARKS
CHATTANOOGA    CLOUDY    46  45  96 CALM      30.31R FOG
$$

SKY/WX REPORTED AS FAIR MEANS FEW OR NO CLOUDS BELOW
12 THOUSAND FEET.




USA.gov is the U.S. government's official web portal to all federal, state and local government web resources and services.